Weather Roundup
Issued by NWS

Home | Current Version | Previous Version | Text Only | Print | Product List | Glossary On
Versions: 1 2 3 4 5 6 7 8 9 10 11 12 13 14 15 16 17 18 19 20 21 22 23 24 25 26 27 28 29 30 31 32 33 34 35 36 37 38 39 40 41 42 43 44 45 46 47 48 49 50
000
NZUS93 KARX 262259
HRRWXR

CURRENT HOURLY OBSERVATIONS ACROSS
MUCH OF THE UPPER MISSISSIPPI VALLEY
NATIONAL WEATHER SERVICE LA CROSSE WI
600 PM CDT TUE JUL 26 2016


...SOUTHEAST MINNESOTA...


CITY           SKY/WX    TMP DP  RH WIND       PRES   REMARKS
ROCHESTER      SUNNY     83  68  60 SW6       30.04F
ROCHESTER/MAYO FAIR      85  64  48 SW10      30.03F
WINONA         SUNNY     90  66  45 W7        30.00S HX  92
AUSTIN         SUNNY     82  66  57 SW7       30.04F
ALBERT LEA     SUNNY     84  66  54 SW5       30.05S
DODGE CENTER   SUNNY     84  66  54 SW6       30.04F
PRESTON        MOSUNNY   83  65  53 SW7       30.05S
OWATONNA       SUNNY     84  66  54 SW9       30.03F
FARIBAULT      SUNNY     84  68  58 S6        30.01F
$$

...ELSEWHERE IN MINNESOTA...


CITY           SKY/WX    TMP DP  RH WIND       PRES   REMARKS
MINNEAPOLIS    PTSUNNY   89  64  43 SW13G24   29.97F HX  90
INTNL FALLS    MOSUNNY   81  60  48 N10       29.96S
DULUTH         CLOUDY    80  69  69 NW6       29.97S
RED WING       SUNNY     88  63  42 W10G16    29.97F
REDWOOD FALLS  CLOUDY    86  67  52 S9        29.97F
MANKATO        SUNNY     84  66  54 SW8       30.00F
WORTHINGTON    NOT AVBL
FAIRMONT       SUNNY     84  66  54 S9        30.02F
$$

...SOUTHWEST WISCONSIN...


CITY           SKY/WX    TMP DP  RH WIND       PRES   REMARKS
LA CROSSE      SUNNY     88  65  46 SW8       29.99F HX  90
PRAIRIE DU CHI SUNNY     85  62  45 S3        30.01S
BOSCOBEL       SUNNY     88  66  48 SW3       30.01S HX  90
LONE ROCK      NOT AVBL
PLATTEVILLE    SUNNY     83  68  58 CALM      30.04S
FORT MC COY    SUNNY     86  65  50 W6        30.02S
MAUSTON-NEW LI CLEAR     85  68  56 W5        30.00F
VIROQUA        FAIR      84  65  52 CALM      30.04S
WIS DELLS      NOT AVBL
$$

...ELSEWHERE IN WISCONSIN...


CITY           SKY/WX    TMP DP  RH WIND       PRES   REMARKS
MILWAUKEE      MOSUNNY   83  59  44 SE13      30.00F
MADISON        MOSUNNY   86  63  45 N6        30.01S
GREEN BAY      SUNNY     84  69  60 SW8       29.96F
EAU CLAIRE     NOT AVBL
BLACK RVR FLS  FAIR      87  65  47 SW8       29.99F
MEDFORD        SUNNY     82  66  58 SW9       30.01R
WAUSAU         SUNNY     85  65  51 W12       29.98R
WIS RAPIDS     SUNNY     87  62  43 W10       30.00F
MARSHFIELD     SUNNY     85  64  49 W12       30.00S
RICE LAKE      MOSUNNY   86  64  47 SW8       29.99S
$$

...NORTHEAST IOWA...


CITY           SKY/WX    TMP DP  RH WIND       PRES   REMARKS
WATERLOO       SUNNY     84  65  52 NE5       30.02S
DUBUQUE        SUNNY     83  61  47 E3        30.04S
DECORAH        SUNNY     84  68  58 CALM      30.03S
MASON CITY     SUNNY     84  67  56 S5        30.06F
CHARLES CITY   MOSUNNY   84  68  58 CALM      30.05S
OELWEIN        SUNNY     82  66  57 SW3       30.05S
$$

...ELSEWHERE IN IOWA...


CITY           SKY/WX    TMP DP  RH WIND       PRES   REMARKS
DES MOINES     MOSUNNY   86  63  45 SE8       30.02R
IOWA CITY      MOSUNNY   86  65  49 NE7       30.03R
FORT DODGE     SUNNY     82  66  57 E5        30.05S
MARSHALLTOWN   MOSUNNY   84  66  54 NE5       30.03S
CEDAR RAPIDS   MOSUNNY   83  67  58 E7        30.02S
$$

...NORTHERN ILLINOIS...


CITY           SKY/WX    TMP DP  RH WIND       PRES   REMARKS
CHICAGO-OHARE  MOSUNNY   85  64  49 E8        29.99F
CHICAGO-MIDWAY MOSUNNY   85  63  47 E9        29.99F
MOLINE         SUNNY     86  64  47 E9        30.00R
ROCKFORD       MOSUNNY   86  64  47 NW3       30.02F
PEORIA         PTSUNNY   86  68  54 VRB3      30.00R
$$

NOTE: "FAIR" INDICATES FEW OR NO CLOUDS BELOW 12,000 FEET WITH NO
SIGNIFICANT WEATHER AND/OR OBSTRUCTIONS TO VISIBILITY. WIND
SPEEDS ARE IN MILES-PER-HOUR.




USA.gov is the U.S. government's official web portal to all federal, state and local government web resources and services.